Tracking 28518 objects as of 2-Mar-2024
HD Live streaming from Space Station
objects crossing your sky now

STARLINK-31320

Track STARLINK-31320 now!
10-day predictions
STARLINK-31320 is classified as:


NORAD ID: 58886
Int'l Code: 2024-020L
Perigee: 487.7 km
Apogee: 489.7 km
Inclination: 53.2 °
Period: 94.2 minutes
Semi major axis: 6859 km
RCS: Unknown
Launch date: January 29, 2024
Source: United States (US)
Launch site: AIR FORCE WESTERN TEST RANGE (AFWTR)
Your satellite tracking list
Your tracking list is empty




NASA's NSSDC Master Catalog

Two Line Element Set (TLE):
1 58886U 24020L   24061.59790626  .00003978  00000-0  15601-3 0  9993
2 58886  53.1585 150.2484 0001464  62.4826 297.6323 15.28064407  5072
Source of the keplerian elements: AFSPC